User: anonymous   Login
Location: Oshawa
(43.9000°N, 78.8670°W)
Time: 05:55:09
(UTC-05:00)
Language:

CARTOSAT-1 - Orbit

View from above orbital plane
View from above orbital plane
View from above satellite
View from above satellite

Ground track
Ground track

The orbit data is extracted from the following two-line orbital elements,

1 28649U 05017A   15030.23732660  .00001364  00000-0  17222-3 0   408
2 28649 097.8105 104.6401 0001154 025.1895 334.9401 14.83480566527157
Epoch (UTC): 30 January 2015 05:41:45
Eccentricity: 0.0001154
inclination: 97.8105°
perigee height: 617 km
apogee height: 619 km
right ascension of ascending node: 104.6401°
argument of perigee: 25.1895°
revolutions per day: 14.83480566
mean anomaly at epoch: 334.9401°
orbit number at epoch: 52715

The dashed part of the orbit path shows where the satellite is in the earth's shadow,  

DLR